This demonstration page uses our WeatherBlox Daily Observations layout. Learn more.

Left ArrowRight Arrow

34.16533, -84.80231

Hourly Observations for July 27, 2020

Temp ( °F °C ) Dew Point ( °F °C ) Humidity (%) Winds ( mph kmh ) Pressure ( in mb ) Visibility ( mi km ) Precip ( " mm )
12:53 am 00:53 Clear 74 23.3 70 21.1 88 88 Calm 30.06 1018 10 16 0.00 0.00
1:53 am 01:53 Clear 73 22.8 69 20.6 87 87 Calm 30.06 1018 10 16 0.00 0.00
2:53 am 02:53 Clear 73 22.8 69 20.6 87 87 Calm 30.06 1018 10 16 0.00 0.00
3:53 am 03:53 Clear 73 22.8 70 21.1 90 90 Calm 30.06 1018 10 16 0.00 0.00
4:53 am 04:53 Clear 73 22.8 70 21.1 90 90 Calm 30.06 1018 10 16 0.00 0.00
5:53 am 05:53 Clear 72 22.2 69 20.6 91 91 Calm 30.07 1018 10 16 0.00 0.00
6:53 am 06:53 Sunny 72 22.2 69 20.6 91 91 Calm 30.08 1019 10 16 0.00 0.00
7:53 am 07:53 Sunny 75 23.9 71 21.7 88 88 Calm 30.09 1019 10 16 0.00 0.00
8:53 am 08:53 Sunny 79 26.1 72 22.2 79 79 VRB 3 6 30.09 1019 10 16 0.00 0.00
9:53 am 09:53 Sunny 82 27.8 73 22.8 74 74 Calm 30.09 1019 10 16 0.00 0.00
10:53 am 10:53 Sunny 86 30 72 22.2 63 63 Calm 30.08 1019 10 16 0.00 0.00
11:53 am 11:53 Sunny 90 32.2 70 21.1 52 52 VRB 3 6 30.06 1018 10 16 0.00 0.00
12:53 pm 12:53 Mostly Sunny 93 33.9 69 20.6 46 46 S 8 13 30.06 1018 10 16 0.00 0.00
1:53 pm 13:53 Sunny 93 33.9 68 20 44 44 VRB 5 7 30.04 1017 10 16 0.00 0.00
2:53 pm 14:53 Sunny 93 33.9 67 19.4 42 42 S 6 9 30.01 1016 10 16 0.00 0.00
3:36 pm 15:36 Sunny with Thunderstorms 93 33.9 68 20 44 44 Calm 29.99 1015 10 16 0.00 0.00
3:51 pm 15:51 Mostly Cloudy with Nearby Thunderstorms 97 36 70 21 42 42 undefined N/A 29.97 1015 10 16 0.00 0.00
3:53 pm 15:53 Mostly Cloudy with Nearby Thunderstorms 95 35 71 21.7 46 46 undefined N/A 29.99 1016 10 16 0.00 0.00
4:53 pm 16:53 Mostly Cloudy with Nearby Thunderstorms 89 31.7 71 21.7 55 55 S 8 13 29.97 1015 10 16 0.00 0.00
5:19 pm 17:19 Mostly Cloudy 85 29.4 71 21.7 63 63 S 10 17 29.98 1015 10 16 0.00 0.00
5:30 pm 17:30 Cloudy with Nearby Thunderstorms 85 29.4 70 21.1 61 61 Calm 29.99 1016 10 16 0.00 0.00
5:53 pm 17:53 Cloudy with Nearby Thunderstorms 84 28.9 71 21.7 65 65 VRB 3 6 29.98 1015 10 16 0.00 0.00
6:16 pm 18:16 Mostly Cloudy 81 27.2 73 22.8 77 77 VRB 3 6 30.00 1016 10 16 0.00 0.00
6:41 pm 18:41 Mostly Cloudy with Thunderstorms 76 24.4 71 21.7 85 85 Calm 30.01 1016 6 10 0.03 0.76
6:53 pm 18:53 Mostly Cloudy with Light Rain 76 24.4 71 21.7 85 85 VRB 3 6 30.00 1016 7 11 0.04 1.02
7:53 pm 19:53 Mostly Sunny 76 24.4 73 22.8 91 91 Calm 30.00 1016 10 16 0.00 0.00
8:53 pm 20:53 Clear 76 24.4 73 22.8 91 91 Calm 29.99 1016 10 16 0.00 0.00
9:53 pm 21:53 Clear 75 23.9 72 22.2 90 90 Calm 29.99 1016 10 16 0.00 0.00
10:53 pm 22:53 Clear 75 23.9 72 22.2 90 90 Calm 30.00 1016 10 16 0.00 0.00
11:53 pm 23:53 Clear 74 23.3 71 21.7 91 91 Calm 30.00 1016 10 16 0.00 0.00

Powered by AerisWeather